Location: Catstown
(52.4386°N, 7.2633°W)
Time: 17:11:14
(UTC+00:00)

Cosmos 1437 - Pass Details

Date: 18 September 2020
Orbit: 365 x 368 km, 81.2° (Epoch: 30 October)

Event Time Altitude Azimuth Distance (km) Brightness Sun altitude
Rises 19:42:12 0° 340° (NNW) 2,258 7.0 -10.8°
Reaches altitude 10° 19:44:17 10° 331° (NNW) 1,401 6.1 -11.1°
Maximum altitude 19:47:06 35° 263° (W) 632 4.3 -11.5°
Drops below altitude 10° 19:49:53 10° 196° (SSW) 1,389 5.4 -11.9°
Sets 19:51:56 0° 187° (S) 2,234 6.3 -12.2°
